This is the latest recevied weather packets stored in our database for station/object W3SN-13. If no packets are shown the sender has not sent any weather packets the latest 10 day(s).
| Time | Temp. | Humidity | Pressure | Rain* | Wind** | Luminosity | Snow |
|---|---|---|---|---|---|---|---|
| 1787956524 | 36.67° C | 33% | 1011.9 hPa | 0 mm | - | - | - |
| 1787955923 | 37.22° C | 33% | 1012 hPa | 0 mm | - | - | - |
| 1787955321 | 37.78° C | 32% | 1012 hPa | 0 mm | - | - | - |
| 1787954720 | 37.22° C | 32% | 1012.1 hPa | 0 mm | - | - | - |
| 1787954118 | 37.22° C | 33% | 1012.1 hPa | 0 mm | - | - | - |
| 1787953517 | 37.78° C | 34% | 1012.3 hPa | 0 mm | - | - | - |
| 1787952915 | 37.78° C | 34% | 1012.4 hPa | 0 mm | - | - | - |
| 1787952314 | 37.78° C | 34% | 1012.4 hPa | 0 mm | - | - | - |
| 1787951713 | 37.78° C | 33% | 1012.6 hPa | 0 mm | - | - | - |
| 1787951111 | 37.78° C | 35% | 1012.7 hPa | 0 mm | - | - | - |
| 1787949232 | 37.78° C | 36% | 1012.9 hPa | 0 mm | - | - | - |
| 1787948828 | 37.78° C | 34% | 1013 hPa | 0 mm | - | - | - |
| 1787948226 | 37.22° C | 33% | 1013 hPa | 0 mm | - | - | - |
| 1787947625 | 37.22° C | 33% | 1013.1 hPa | 0 mm | - | - | - |
| 1787947024 | 37.22° C | 33% | 1013.2 hPa | 0 mm | - | - | - |
| 1787946422 | 36.67° C | 34% | 1013.3 hPa | 0 mm | - | - | - |
| 1787945821 | 36.67° C | 34% | 1013.4 hPa | 0 mm | - | - | - |
| 1787945219 | 36.11° C | 35% | 1013.5 hPa | 0 mm | - | - | - |
| 1787944618 | 35.56° C | 34% | 1013.6 hPa | 0 mm | - | - | - |
| 1787944017 | 35.56° C | 37% | 1013.7 hPa | 0 mm | - | - | - |
| 1787943415 | 35° C | 40% | 1013.9 hPa | 0 mm | - | - | - |
| 1787942814 | 35.56° C | 40% | 1013.9 hPa | 0 mm | - | - | - |
| 1787942212 | 36.11° C | 40% | 1013.8 hPa | 0 mm | - | - | - |
| 1787941610 | 35° C | 42% | 1013.9 hPa | 0 mm | - | - | - |
| 1787941009 | 34.44° C | 44% | 1013.9 hPa | 0 mm | - | - | - |
* Rain latest hour (hover to see other rain measurements)
** Current wind speed in m/s (hover to see current wind gust speed)